Location: Kale Tepe
(37.0149°N, 29.7984°E)
Time: 20:40:41
(UTC+00:00)

Daily predictions for brighter satellites

Satellite Brightness Start Highest point End
(mag) Time Altitude Azimuth Time Altitude Azimuth Time Altitude Azimuth
Cosmos 540 Rocket 3.6 15:29:32 10° SSW 15:34:40 83° WNW 15:39:49 10° NNE
Cosmos 468 Rocket 4.0 15:33:02 10° SSW 15:38:14 82° ESE 15:43:25 10° NNE
Cosmos 1733 Rocket 3.4 15:36:28 10° N 15:40:40 43° E 15:44:52 10° SSE
Cosmos 2228 Rocket 3.1 15:40:14 10° S 15:44:42 69° E 15:49:14 10° NNE
Cosmos 2279 Rocket 4.0 15:39:14 10° N 15:45:25 69° E 15:51:33 10° SSE
Cosmos 841 Rocket 3.9 15:42:48 10° S 15:47:46 44° ESE 15:52:45 10° NNE
Cosmos 1898 Rocket 4.2 15:47:27 10° N 15:52:13 33° ENE 15:56:58 10° SE
PSLV R/B 3.5 15:49:45 10° S 15:53:47 80° WSW 15:57:53 10° NNW
SL-16 R/B 3.2 15:49:25 10° SSE 15:54:04 27° ESE 15:58:45 10° NE
Cosmos 1980 4.0 15:48:52 10° SSW 15:54:28 73° WNW 16:00:08 10° NNE
Aureole 1 Rocket 4.5 15:48:39 10° N 15:55:58 49° ENE 16:02:19 10° SE
Dummy Sat-01 4.5 15:52:37 10° S 15:56:17 79° E 15:59:57 10° N
Okean 1-7 3.2 15:55:16 10° SSE 15:59:23 49° E 16:03:31 10° NNE
Cosmos 1703 4.1 15:56:31 10° SSE 15:59:26 25° E 16:02:21 10° NE
SMAP 4.3 15:56:21 10° S 16:00:48 46° W 16:05:18 10° NNW
USA 267 4.4 16:01:51 10° SSE 16:08:06 47° SW 16:14:23 10° NW
ACS3 Solar Sail 2.1 16:02:11 10° SE 16:08:13 47° ENE 16:14:18 10° N
ATLAS 2AS CENTAUR R/B 3.8 16:03:12 10° N 16:08:20 22° NE 16:11:35 16° ENE
Lacrosse 5 3.9 16:05:33 10° WNW 16:10:04 32° WSW 16:14:34 10° S
BREEZE-M DEB 3.2 16:08:12 10° SSW 16:10:25 35° SE 16:12:58 18° ENE
Cosmos 1953 2.3 16:07:54 10° N 16:11:38 75° W 16:15:19 10° S
Cosmos 1437 Rocket 4.2 16:11:29 10° SE 16:13:35 17° E 16:13:35 17° E
SKYMED 2 3.7 16:10:57 10° N 16:15:19 79° WNW 16:19:38 10° SSW
Cosmos 2369 Rocket 4.0 16:13:35 10° NNE 16:15:04 12° NE 16:15:04 12° NE
DNEPR-1 R/B 3.5 16:18:05 10° NNW 16:22:36 58° ENE 16:26:43 10° SE
Cosmos 372 Rocket 3.9 16:17:38 10° N 16:22:40 60° ENE 16:27:40 10° SSE
Cosmos 1174 4.0 16:19:47 10° NNW 16:23:45 88° WSW 16:28:39 10° SSE
EO 1 Delta rocket 3.8 16:21:31 10° N 16:26:10 85° W 16:30:58 10° SSW
Aureole 3 3.1 16:29:02 10° SSE 16:31:27 38° ESE 16:31:27 38° ESE
Cosmos 1908 Rocket 3.6 16:29:28 10° N 16:33:40 49° E 16:37:50 10° SSE
BREEZE-M TANK 3.2 16:30:20 10° WNW 16:34:04 67° NNE 16:40:37 16° ESE
Cosmos 2026 Rocket 4.1 16:28:33 10° SSE 16:34:43 55° E 16:40:54 10° NNE
Meteor 1-31 Rocket 2.4 16:31:28 10° SSE 16:35:01 81° ENE 16:38:35 10° N
Cosmos 1932 4.4 16:30:12 10° SSW 16:36:22 84° ESE 16:41:22 17° NNE
Delta 2 Rocket 2.7 16:33:22 10° W 16:36:34 69° S 16:37:13 50° ESE
Cosmos 1428 Rocket 4.4 16:35:23 10° S 16:41:36 88° E 16:47:48 10° N
Cosmos 1937 Rocket 3.3 16:37:19 10° NNW 16:42:27 68° ENE 16:47:35 10° SSE
Cosmos 858 Rocket 4.5 16:41:52 10° N 16:46:59 55° ENE 16:52:06 10° SSE
Cosmos 2237 Rocket 4.0 16:44:04 10° WSW 16:48:54 28° WNW 16:53:45 10° N
Cosmos 1943 Rocket 3.0 16:44:22 10° NNW 16:49:51 53° WSW 16:55:15 10° S
YAOGAN 3 4.3 16:46:21 10° SSE 16:50:34 78° ENE 16:54:49 10° N
Cosmos 1825 2.4 16:48:55 10° S 16:50:59 40° S 16:50:59 40° S
SL-08 R/B 3.9 16:57:06 39° ESE 16:57:06 39° ESE 17:00:56 10° S
RESURS DK-1 3.5 16:52:45 10° NW 16:56:33 42° WSW 17:00:20 10° S
NOAA 6 4.3 16:51:39 10° S 16:56:42 67° WSW 17:01:48 10° NNW
BREEZE-M DEB (TANK) 4.4 17:00:06 10° NNW 17:00:08 10° NNW 17:00:08 10° NNW
Hubble Space Telescope 2.9 16:59:28 10° SSW 17:01:32 15° SSE 17:01:32 15° SSE
BlueWalker 3 4.5 16:59:41 10° NNW 16:59:51 11° N 16:59:51 11° N
Cosmos 2278 Rocket 4.1 16:58:54 10° NW 17:03:44 30° WSW 17:08:32 10° SSW
OAO 1 Rocket 4.5 16:58:45 10° WSW 17:04:04 69° S 17:05:11 53° ESE
CZ-4C R/B 3.7 17:00:56 10° W 17:04:27 23° NW 17:08:00 12° N
YAOGAN 1 3.4 17:04:49 10° S 17:08:56 49° W 17:13:05 10° NNW
Meteor 1-24 Rocket 3.7 17:06:18 10° S 17:12:08 78° E 17:15:51 25° NNE
ATLAS 5 CENTAUR R/B 3.2 17:11:40 10° W 17:13:55 18° NW 17:14:21 18° NW
SPOT 1/Viking Rocket 3.6 17:11:22 10° S 17:16:31 76° WSW 17:21:41 10° NNW
Cosmos 1892 4.3 17:14:28 10° SSW 17:15:59 24° SSW 17:15:59 24° SSW
Cosmos 1943 4.0 17:16:23 10° S 17:19:58 36° SSE 17:19:58 36° SSE
Meteor 2-5 Rocket 3.7 17:16:46 10° S 17:22:29 89° WNW 17:25:03 35° N
Resurs 1-3 4.1 17:20:19 10° S 17:24:31 56° W 17:28:47 10° NNW
Cosmos 1656 Rocket 3.9 17:29:06 10° NNW 17:33:23 56° NNW 17:33:23 56° NNW
SL-16 R/B 3.5 17:32:43 10° SW 17:37:56 38° WNW 17:40:55 22° N
ACS3 Solar Sail 3.9 17:46:45 10° SSW 17:51:53 26° W 17:57:05 10° NW
ATLAS 2AS CENTAUR R/B 2.8 17:53:12 10° NW 17:59:05 68° WNW 17:59:05 68° WNW
Cosmos 2369 Rocket 4.0 17:55:09 10° NNW 17:56:55 21° NNW 17:56:55 21° NNW
